Melbourne Airport, Australia

1:24 PM AEDT on October 18, 2017 (GMT +1100)
Melbourne International

Weather History for YMML - September, 2013

Change the Weather History Date:

Tuesday, September 17, 2013

  Actual Average Record
Temperature  
Mean Temperature 56 °F -  
Max Temperature 65 °F 62 °F 77 °F (2011)
Min Temperature 48 °F 44 °F 35 °F (2017)
Degree Days  
Heating Degree Days 8    
Growing Degree Days 6 (Base 50)    
Moisture  
Dew Point 51 °F    
Average Humidity 87    
Maximum Humidity 100    
Minimum Humidity 55    
Precipitation  
Precipitation 0.00 in 0.07 in - ()
Sea Level Pressure  
Sea Level Pressure 29.59 in    
Wind  
Wind Speed 4 mph ()    
Max Wind Speed 12 mph    
Max Gust Speed -    
Visibility 6.9 miles    
Events Fog    
Averages and records for this station are not official NWS values.
T = Trace of Precipitation, MM = Missing Value Source: Averaged Metar Reports

Daily Weather History Graph

Daily Weather History Graph

Search for Another Location

Airport or City:

Trip Planner

Search our weather history database for the weather conditions in past years. The results will help you decide how hot, cold, wet, or windy it might be!

Date:

Astronomy

Sep. 17, 2013 Rise Set
Actual Time 6:18 AM AEST 6:12 PM AEST
Civil Twilight 5:52 AM AEST 6:38 PM AEST
Nautical Twilight 5:21 AM AEST 7:09 PM AEST
Astronomical Twilight 4:51 AM AEST 7:40 PM AEST
Moon 3:52 PM AEST (9/17) 4:25 AM AEST (9/17)
Length of Visible Light 12h 46m
Length of Day
11h 54m
Waxing Gibbous, 93% of the Moon is Illuminated
Sep 17
Waxing Gibbous
Sep 19
Full
Sep 27
Last Quarter
Oct 5
New
Oct 12
First Quarter

Hourly Weather History & Observations

Time (AEST) Temp. Dew Point Humidity Pressure Visibility Wind Dir Wind Speed Gust Speed Precip Events Conditions
12:00 AM 54 °F 53 °F 96% 29.61 in 12 mi ENE 5.8 mph - -   Partly Cloudy
12:00 AM 53.6 °F 53.6 °F 100% 29.59 in 6.2 mi ENE 5.8 mph - N/A   Overcast
12:30 AM 53.6 °F 53.6 °F 100% 29.59 in 6.2 mi Calm Calm - N/A   Mostly Cloudy
1:00 AM 53 °F 52 °F 97% 29.60 in - Calm Calm - -  
1:00 AM 53.6 °F 51.8 °F 94% 29.59 in 6.2 mi Calm Calm - N/A   Mostly Cloudy
1:08 AM 53.6 °F 53.6 °F 100% 29.59 in 6.2 mi Calm Calm - N/A   Mostly Cloudy
1:30 AM 51.8 °F 51.8 °F 100% 29.59 in 6.2 mi Calm Calm - N/A Fog Shallow Fog
2:00 AM 53 °F 52 °F 95% 29.59 in - Calm Calm - -  
2:00 AM 53.6 °F 51.8 °F 94% 29.59 in 6.2 mi Calm Calm - N/A Fog Shallow Fog
2:30 AM 51.8 °F 51.8 °F 100% 29.59 in 5.6 mi Calm Calm - N/A Fog Fog
2:38 AM 51.8 °F 51.8 °F 100% 29.59 in 5.6 mi Calm Calm - N/A Fog Fog
3:00 AM 52 °F 52 °F 98% 29.59 in 6 mi Calm Calm - - Fog Patches of Fog
3:00 AM 51.8 °F 51.8 °F 100% 29.56 in 6.2 mi Calm Calm - N/A Fog Shallow Fog
3:30 AM 51.8 °F 50.0 °F 94% 29.56 in 6.2 mi Calm Calm - N/A Fog Shallow Fog
4:00 AM 50 °F 49 °F 96% 29.58 in - Calm Calm - -  
4:00 AM 50.0 °F 50.0 °F 100% 29.56 in 3.1 mi Calm Calm - N/A Fog Shallow Fog
4:30 AM 50.0 °F 50.0 °F 100% 29.56 in 3.1 mi NNW 5.8 mph - N/A Fog Patches of Fog
5:00 AM 51 °F 49 °F 92% 29.59 in - North 8.1 mph - -  
5:00 AM 50.0 °F 50.0 °F 100% 29.56 in 3.1 mi North 8.1 mph - N/A Fog Patches of Fog
5:30 AM 50.0 °F 50.0 °F 100% 29.59 in 6.2 mi NW 4.6 mph - N/A Fog Shallow Fog
6:00 AM 49 °F 48 °F 97% 29.61 in 6 mi NW 3.5 mph - - Fog Patches of Fog
6:00 AM 48.2 °F 48.2 °F 100% 29.59 in 5.6 mi NW 3.5 mph - N/A Fog Fog
6:30 AM 50.0 °F 48.2 °F 94% 29.59 in 6.2 mi WNW 6.9 mph - N/A Fog Shallow Fog
7:00 AM 51 °F 50 °F 93% 29.62 in - North 5.8 mph - -  
7:00 AM 50.0 °F 50.0 °F 100% 29.62 in 6.2 mi North 5.8 mph - N/A Fog Shallow Fog
7:30 AM 51.8 °F 50.0 °F 94% 29.62 in 6.2 mi North 6.9 mph - N/A   Mostly Cloudy
8:00 AM 53 °F 51 °F 89% 29.63 in - North 4.6 mph - -  
8:00 AM 53.6 °F 50.0 °F 88% 29.62 in 6.2 mi North 4.6 mph - N/A   Mostly Cloudy
9:00 AM 53 °F 50 °F 85% 29.64 in 16 mi SW 5.8 mph - -   Haze
9:00 AM 53.6 °F 50.0 °F 88% 29.62 in 6.2 mi SW 5.8 mph - N/A   Mostly Cloudy
9:30 AM 53.6 °F 50.0 °F 88% 29.62 in 6.2 mi WSW 4.6 mph - N/A   Light Drizzle
10:00 AM 54 °F 51 °F 85% 29.64 in - West 2.3 mph - -  
10:00 AM 55.4 °F 50.0 °F 82% 29.62 in 6.2 mi West 2.3 mph - N/A   Mostly Cloudy
10:30 AM 57.2 °F 51.8 °F 82% 29.62 in 6.2 mi West 6.9 mph - N/A   Mostly Cloudy
11:00 AM 58 °F 53 °F 77% 29.62 in - WSW 4.6 mph - -  
11:00 AM 57.2 °F 53.6 °F 88% 29.62 in 6.2 mi WSW 4.6 mph - N/A   Mostly Cloudy
11:30 AM 59.0 °F 53.6 °F 82% 29.59 in 6.2 mi SSW 3.5 mph - N/A   Mostly Cloudy
12:00 PM 60 °F 52 °F 69% 29.61 in 16 mi South 5.8 mph - -   Haze
12:00 PM 59.0 °F 51.8 °F 77% 29.59 in 6.2 mi South 5.8 mph - N/A   Mostly Cloudy
12:30 PM 60.8 °F 53.6 °F 77% 29.59 in 6.2 mi South 6.9 mph - N/A   Mostly Cloudy
1:00 PM 63 °F 52 °F 59% 29.60 in - South 4.6 mph - -  
1:00 PM 62.6 °F 51.8 °F 68% 29.59 in 6.2 mi South 4.6 mph - N/A   Mostly Cloudy
1:30 PM 62.6 °F 53.6 °F 72% 29.56 in 6.2 mi WSW 8.1 mph - N/A   Scattered Clouds
2:00 PM 62.6 °F 53.6 °F 72% 29.56 in 6.2 mi WSW 8.1 mph - N/A   Mostly Cloudy
2:30 PM 62.6 °F 51.8 °F 68% 29.56 in 6.2 mi SSW 8.1 mph - N/A   Scattered Clouds
3:00 PM 65 °F 53 °F 55% 29.56 in 19 mi SSW 4.6 mph - -   Partly Cloudy
3:00 PM 64.4 °F 51.8 °F 64% 29.53 in 6.2 mi SSW 4.6 mph - N/A   Mostly Cloudy
3:30 PM 62.6 °F 51.8 °F 68% 29.53 in 6.2 mi South 8.1 mph - N/A   Mostly Cloudy
4:00 PM 61 °F 54 °F 70% 29.56 in - South 11.5 mph - -  
4:00 PM 60.8 °F 53.6 °F 77% 29.53 in 6.2 mi South 11.5 mph - N/A   Mostly Cloudy
4:30 PM 62.6 °F 51.8 °F 68% 29.56 in 6.2 mi South 11.5 mph - N/A   Mostly Cloudy
5:00 PM 62.6 °F 51.8 °F 68% 29.56 in 6.2 mi South 10.4 mph - N/A   Scattered Clouds
5:30 PM 60.8 °F 51.8 °F 72% 29.56 in 6.2 mi South 8.1 mph - N/A   Scattered Clouds
6:00 PM 59 °F 50 °F 65% 29.58 in 19 mi South 8.1 mph - -   Partly Cloudy
6:00 PM 59.0 °F 50.0 °F 72% 29.56 in 6.2 mi South 8.1 mph - N/A   Scattered Clouds
6:30 PM 57.2 °F 51.8 °F 82% 29.56 in 6.2 mi South 5.8 mph - N/A   Scattered Clouds
7:00 PM 56 °F 51 °F 78% 29.59 in - South 2.3 mph - -  
7:00 PM 55.4 °F 51.8 °F 88% 29.56 in 6.2 mi South 2.3 mph - N/A   Scattered Clouds
7:30 PM 55.4 °F 51.8 °F 88% 29.56 in 6.2 mi Calm Calm - N/A   Partly Cloudy
8:00 PM 53 °F 50 °F 86% 29.59 in - West 3.5 mph - -  
8:00 PM 51.8 °F 50.0 °F 94% 29.59 in - West 3.5 mph - N/A   Clear
8:30 PM 51.8 °F 50.0 °F 94% 29.59 in 6.2 mi West 8.1 mph - N/A   Partly Cloudy
9:00 PM 53 °F 51 °F 92% 29.60 in 9 mi West 6.9 mph - -   Haze
9:00 PM 51.8 °F 51.8 °F 100% 29.59 in 6.2 mi West 6.9 mph - N/A   Mostly Cloudy
9:30 PM 55.4 °F 53.6 °F 94% 29.59 in 6.2 mi West 8.1 mph - N/A   Mostly Cloudy
10:00 PM 53 °F 52 °F 95% 29.60 in - WNW 5.8 mph - -  
10:00 PM 53.6 °F 51.8 °F 94% 29.59 in 5.6 mi WNW 5.8 mph - N/A   Partly Cloudy
10:30 PM 55.4 °F 53.6 °F 94% 29.59 in 5.0 mi WNW 6.9 mph - N/A   Mostly Cloudy
11:00 PM 54 °F 53 °F 95% 29.60 in - WNW 8.1 mph - -  
11:00 PM 53.6 °F 53.6 °F 100% 29.59 in 5.6 mi WNW 8.1 mph - N/A   Mostly Cloudy
11:30 PM 53.6 °F 51.8 °F 94% 29.59 in 5.6 mi WNW 6.9 mph - N/A   Mostly Cloudy
11:47 PM 53.6 °F 51.8 °F 94% 29.56 in 6.2 mi West 6.9 mph - N/A   Mostly Cloudy